Bellefonte, PA

9:33 PM EST on February 25, 2017 (GMT -0500)
University Park

Weather History for KUNV - April, 2013

Change the Weather History Date:

Thursday, April 18, 2013

  Actual Average Record
Temperature  
Mean Temperature 58 °F -  
Max Temperature 63 °F 61 °F 90 °F (1976)
Min Temperature 54 °F 37 °F 23 °F (1926)
Degree Days  
Heating Degree Days 6    
Growing Degree Days 8 (Base 50)    
Moisture  
Dew Point 44 °F    
Average Humidity 62    
Maximum Humidity 88    
Minimum Humidity 32    
Precipitation  
Precipitation 0.00 in - - ()
Sea Level Pressure  
Sea Level Pressure 30.11 in    
Wind  
Wind Speed 4 mph (SSE)    
Max Wind Speed 12 mph    
Max Gust Speed -    
Visibility 9 miles    
Events      
Averages and records for this station are not official NWS values.
T = Trace of Precipitation, MM = Missing Value Source: NWS Daily Summary

Daily Weather History Graph

Daily Weather History Graph

Search for Another Location

Airport or City:

Trip Planner

Search our weather history database for the weather conditions in past years. The results will help you decide how hot, cold, wet, or windy it might be!

Date:

Astronomy

Apr. 18, 2013 Rise Set
Actual Time 6:27 AM EDT 7:54 PM EDT
Civil Twilight 5:58 AM EDT 8:23 PM EDT
Nautical Twilight 5:24 AM EDT 8:57 PM EDT
Astronomical Twilight 4:48 AM EDT 9:34 PM EDT
Moon 12:36 PM EDT (4/18) 2:08 AM EDT (4/18)
Length of Visible Light 14h 24m
Length of Day
13h 26m
First Quarter, 51% of the Moon is Illuminated
Apr 18
First Quarter
Apr 25
Full
May 2
Last Quarter
May 9
New
May 18
First Quarter

Hourly Weather History & Observations

Time (EDT) Temp. Dew Point Humidity Pressure Visibility Wind Dir Wind Speed Gust Speed Precip Events Conditions
12:15 AM 58.1 °F 29.5 °F 34% 30.20 in 10.0 mi Calm Calm - N/A   Overcast
12:35 AM 57.9 °F 29.3 °F 34% 30.20 in 10.0 mi ESE 4.6 mph - N/A   Scattered Clouds
12:55 AM 58.1 °F 28.6 °F 32% 30.21 in 10.0 mi Calm Calm - N/A   Clear
1:15 AM 55.4 °F 32.0 °F 41% 30.21 in 10.0 mi WNW 3.5 mph - N/A   Clear
1:35 AM 55.6 °F 32.0 °F 41% 30.22 in 10.0 mi NW 3.5 mph - N/A   Mostly Cloudy
1:55 AM 55.8 °F 33.3 °F 43% 30.20 in 10.0 mi North 3.5 mph - N/A   Overcast
2:15 AM 55.4 °F 32.0 °F 41% 30.19 in 10.0 mi Calm Calm - N/A   Mostly Cloudy
2:35 AM 54.9 °F 32.0 °F 42% 30.18 in 10.0 mi Calm Calm - N/A   Mostly Cloudy
2:55 AM 57.2 °F 31.5 °F 38% 30.18 in 10.0 mi Calm Calm - N/A   Overcast
3:15 AM 58.1 °F 32.2 °F 38% 30.17 in 10.0 mi Calm Calm - N/A   Overcast
3:35 AM 55.9 °F 32.5 °F 41% 30.16 in 10.0 mi Calm Calm - N/A   Overcast
3:55 AM 56.3 °F 36.3 °F 47% 30.15 in 10.0 mi Calm Calm - N/A   Overcast
4:15 AM 57.6 °F 36.0 °F 44% 30.15 in 10.0 mi South 3.5 mph - N/A   Overcast
4:35 AM 58.8 °F 40.5 °F 51% 30.14 in 10.0 mi South 4.6 mph - N/A   Overcast
4:55 AM 59.0 °F 42.1 °F 53% 30.14 in 10.0 mi South 4.6 mph - N/A   Overcast
5:35 AM 58.8 °F 44.4 °F 59% 30.13 in 10.0 mi South 4.6 mph - N/A   Overcast
5:53 AM 59.0 °F 46.4 °F 63% 30.13 in 10.0 mi South 6.9 mph - N/A   Overcast
6:53 AM 59.0 °F 48.2 °F 67% 30.15 in 10.0 mi South 6.9 mph - N/A   Overcast
7:53 AM 59.0 °F 50.0 °F 72% 30.16 in 7.0 mi South 8.1 mph - N/A   Overcast
8:53 AM 57.2 °F 53.6 °F 88% 30.18 in 7.0 mi South 6.9 mph - N/A   Overcast
9:53 AM 57.2 °F 50.0 °F 77% 30.16 in 7.0 mi SSE 8.1 mph - N/A   Overcast
10:53 AM 57.2 °F 50.0 °F 77% 30.15 in 7.0 mi SSE 6.9 mph - N/A   Overcast
11:53 AM 57.2 °F 50.0 °F 77% 30.15 in 7.0 mi SSE 6.9 mph - N/A   Overcast
12:53 PM 57.2 °F 50.0 °F 77% 30.11 in 7.0 mi SSE 8.1 mph - N/A   Overcast
1:53 PM 57.2 °F 50.0 °F 77% 30.10 in 7.0 mi SSE 10.4 mph - N/A   Overcast
2:53 PM 57.2 °F 51.8 °F 82% 30.07 in 6.0 mi SSE 11.5 mph - N/A   Overcast
3:42 PM 57.2 °F 51.8 °F 82% 30.05 in 6.0 mi SE 9.2 mph - N/A   Overcast
3:53 PM 57.2 °F 51.8 °F 82% 30.05 in 6.0 mi SSE 8.1 mph - N/A   Overcast
4:53 PM 57.2 °F 53.6 °F 88% 30.04 in 6.0 mi SSE 9.2 mph - N/A   Overcast
5:53 PM 57.2 °F 53.6 °F 88% 30.02 in 6.0 mi Calm Calm - N/A   Overcast
6:53 PM 60.8 °F 55.4 °F 82% 29.98 in 10.0 mi Calm Calm - N/A   Overcast
7:53 PM 62.6 °F 55.4 °F 77% 29.97 in 6.0 mi South 5.8 mph - N/A   Overcast
8:53 PM 62.6 °F 57.2 °F 82% 29.96 in 6.0 mi South 5.8 mph - N/A   Mostly Cloudy
9:35 PM 63.5 °F 56.7 °F 78% 29.97 in 10.0 mi South 5.8 mph - N/A   Mostly Cloudy
11:35 PM 62.6 °F 54.9 °F 76% 29.92 in 10.0 mi South 6.9 mph - N/A   Clear
11:55 PM 62.6 °F 54.5 °F 75% 29.92 in 10.0 mi SSE 6.9 mph - N/A   Clear